SP1GDK-10 Weather Reports


time (UTC)temp
C
wind
direction
speed
KPH
gust
KPH
rain 1hr
cm
rain 24hr
cm
rain mn
cm
humidity
%
barometer
mb
20260507195914 9 0.0 0.0 0.00 0.00 0.00 86 1019.8
20260507194913 9 0.0 0.0 0.00 0.00 0.00 84 1019.7
20260507193916 9 0.0 0.0 0.00 0.00 0.00 83 1019.5
20260507192924 9 0.0 0.0 0.00 0.00 0.00 81 1019.5
20260507191913 9 0.0 0.0 0.00 0.00 0.00 79 1019.4
20260507190914 9 0.0 0.0 0.00 0.00 0.00 76 1019.3
20260507185915 10 0.0 0.0 0.00 0.00 0.00 76 1019.2
20260507184919 10 0.0 0.0 0.00 0.00 0.00 81 1019.2
20260507182914 10 0.0 0.0 0.00 0.00 0.00 79 1018.9
20260507181914 10 0.0 0.0 0.00 0.00 0.00 77 1018.8
20260507180914 10 0.0 0.0 0.00 0.00 0.00 77 1018.7
20260507175914 11 0.0 0.0 0.00 0.00 0.00 76 1018.6
20260507174913 11 0.0 0.0 0.00 0.00 0.00 73 1018.5
20260507170913 11 0.0 0.0 0.00 0.00 0.00 69 1018.3
20260507165912 11 0.0 0.0 0.00 0.00 0.00 67 1018.2
20260507163914 12 0.0 0.0 0.00 0.00 0.00 67 1018.2
20260507162914 11 0.0 0.0 0.00 0.00 0.00 67 1018.2
20260507161915 12 0.0 0.0 0.00 0.00 0.00 67 1018.1
20260507160915 12 0.0 0.0 0.00 0.00 0.00 67 1018.0
20260507155914 12 0.0 0.0 0.00 0.00 0.00 66 1018.0
20260507154912 11 0.0 0.0 0.00 0.00 0.00 66 1017.9
20260507151914 12 0.0 0.0 0.00 0.00 0.00 64 1017.8
20260507150913 12 0.0 0.0 0.00 0.00 0.00 61 1017.8
20260507145914 12 0.0 0.0 0.00 0.00 0.00 57 1017.6
20260507144914 12 0.0 0.0 0.00 0.00 0.00 56 1017.5
20260507143914 12 0.0 0.0 0.00 0.00 0.00 56 1017.4
20260507142913 13 0.0 0.0 0.00 0.00 0.00 54 1017.4
20260507140913 14 0.0 0.0 0.00 0.00 0.00 53 1017.2
20260507135914 14 0.0 0.0 0.00 0.00 0.00 54 1017.4
20260507134913 13 0.0 0.0 0.00 0.00 0.00 53 1017.2
20260507131912 15 0.0 0.0 0.00 0.00 0.00 52 1017.1
20260507125919 16 0.0 0.0 0.00 0.00 0.00 50 1016.9
20260507124913 16 0.0 0.0 0.00 0.00 0.00 51 1016.8
20260507122912 15 0.0 0.0 0.00 0.00 0.00 50 1016.6
20260507120914 15 0.0 0.0 0.00 0.00 0.00 50 1016.6
20260507115913 14 0.0 0.0 0.00 0.00 0.00 44 1016.5
20260507114920 15 0.0 0.0 0.00 0.00 0.00 46 1016.3
20260507113913 16 0.0 0.0 0.00 0.00 0.00 49 1016.3
20260507112912 15 0.0 0.0 0.00 0.00 0.00 53 1016.2
20260507111913 15 0.0 0.0 0.00 0.00 0.00 54 1016.3
20260507110914 15 0.0 0.0 0.00 0.00 0.00 54 1016.2
20260507105914 14 0.0 0.0 0.00 0.00 0.00 54 1016.2
20260507104913 14 0.0 0.0 0.00 0.00 0.00 54 1016.1
20260507103913 14 0.0 0.0 0.00 0.00 0.00 55 1016.1
20260507101912 13 0.0 0.0 0.00 0.00 0.00 57 1016.0
20260507100913 13 0.0 0.0 0.00 0.00 0.00 60 1016.0
20260507095914 14 0.0 0.0 0.00 0.00 0.00 64 1015.9
20260507092912 13 0.0 0.0 0.00 0.00 0.00 64 1015.6
20260507091913 13 0.0 0.0 0.00 0.00 0.00 65 1015.6
20260507085913 13 0.0 0.0 0.00 0.00 0.00 75 1015.6
20260507084914 12 0.0 0.0 0.00 0.00 0.00 77 1015.5
20260507083914 12 0.0 0.0 0.00 0.00 0.00 82 1015.6
20260507082918 12 0.0 0.0 0.00 0.00 0.00 92 1015.5
20260507081913 10 0.0 0.0 0.00 0.00 0.00 99 1015.6
20260507080913 10 0.0 0.0 0.00 0.00 0.00 10 1015.6
20260507075914 10 0.0 0.0 0.00 0.00 0.00 10 1015.5
20260507074913 11 0.0 0.0 0.00 0.00 0.00 10 1015.3
20260507073911 10 0.0 0.0 0.00 0.00 0.00 10 1015.2
20260507071914 10 0.0 0.0 0.00 0.00 0.00 10 1015.1
20260507070914 9 0.0 0.0 0.00 0.00 0.00 10 1015.2
20260507065913 8 0.0 0.0 0.00 0.00 0.00 10 1015.2
20260507064913 8 0.0 0.0 0.00 0.00 0.00 10 1015.1
20260507063918 8 0.0 0.0 0.00 0.00 0.00 10 1014.9
20260507062914 8 0.0 0.0 0.00 0.00 0.00 10 1014.9
20260507061913 8 0.0 0.0 0.00 0.00 0.00 10 1014.9
20260507060912 8 0.0 0.0 0.00 0.00 0.00 10 1014.8
20260507055913 8 0.0 0.0 0.00 0.00 0.00 10 1014.7
20260507054914 8 0.0 0.0 0.00 0.00 0.00 10 1014.6
20260507053914 8 0.0 0.0 0.00 0.00 0.00 10 1014.6
20260507052912 7 0.0 0.0 0.00 0.00 0.00 10 1014.7
20260507051912 8 0.0 0.0 0.00 0.00 0.00 10 1014.5
20260507050919 7 0.0 0.0 0.00 0.00 0.00 10 1014.4
20260507045914 7 0.0 0.0 0.00 0.00 0.00 10 1014.4
20260507044913 7 0.0 0.0 0.00 0.00 0.00 10 1014.3
20260507043912 8 0.0 0.0 0.00 0.00 0.00 10 1014.1
20260507041913 8 0.0 0.0 0.00 0.00 0.00 10 1013.8
20260507040913 8 0.0 0.0 0.00 0.00 0.00 10 1013.7
20260507035912 8 0.0 0.0 0.00 0.00 0.00 10 1013.5
20260507034913 8 0.0 0.0 0.00 0.00 0.00 10 1013.5
20260507033913 8 0.0 0.0 0.00 0.00 0.00 10 1013.6
20260507032913 8 0.0 0.0 0.00 0.00 0.00 10 1013.5
20260507031913 8 0.0 0.0 0.00 0.00 0.00 10 1013.3
20260507030914 8 0.0 0.0 0.00 0.00 0.00 10 1013.2
20260507025913 8 0.0 0.0 0.00 0.00 0.00 10 1013.2
20260507022914 8 0.0 0.0 0.00 0.00 0.00 10 1013.1
20260507021912 8 0.0 0.0 0.00 0.00 0.00 10 1013.0
20260507020917 8 0.0 0.0 0.00 0.00 0.00 10 1012.9
20260507015913 8 0.0 0.0 0.00 0.00 0.00 10 1012.9
20260507014914 8 0.0 0.0 0.00 0.00 0.00 10 1012.9
20260507013914 8 0.0 0.0 0.00 0.00 0.00 10 1012.9
20260507012913 8 0.0 0.0 0.00 0.00 0.00 10 1012.7
20260507011913 8 0.0 0.0 0.00 0.00 0.00 10 1012.5
20260507010913 7 0.0 0.0 0.00 0.00 0.00 10 1012.6
20260507005912 7 0.0 0.0 0.00 0.00 0.00 10 1012.5
20260507004912 7 0.0 0.0 0.00 0.00 0.00 10 1012.4
20260507002911 8 0.0 0.0 0.00 0.00 0.00 10 1012.6
20260507000912 8 0.0 0.0 0.00 0.00 0.00 10 1012.5
20260506235913 7 0.0 0.0 0.00 0.00 0.00 10 1012.4
20260506234913 7 0.0 0.0 0.00 0.00 0.00 10 1012.3
20260506233914 8 0.0 0.0 0.00 0.00 0.00 10 1012.1
20260506232913 8 0.0 0.0 0.00 0.00 0.00 10 1012.3
20260506231913 8 0.0 0.0 0.00 0.00 0.00 10 1012.2
20260506230916 8 0.0 0.0 0.00 0.00 0.00 10 1012.1
20260506225915 8 0.0 0.0 0.00 0.00 0.00 10 1012.1
20260506223912 8 0.0 0.0 0.00 0.00 0.00 10 1012.2
20260506222914 7 0.0 0.0 0.00 0.00 0.00 10 1011.9
20260506221914 7 0.0 0.0 0.00 0.00 0.00 10 1012.0
20260506215912 7 0.0 0.0 0.00 0.00 0.00 10 1012.1
20260506205912 7 0.0 0.0 0.00 0.00 0.00 10 1011.5
20260506203913 7 0.0 0.0 0.00 0.00 0.00 10 1011.4
20260506202913 7 0.0 0.0 0.00 0.00 0.00 10 1011.4
20260506201913 7 0.0 0.0 0.00 0.00 0.00 10 1011.5
20260506200913 7 0.0 0.0 0.00 0.00 0.00 10 1011.4